Aérodrome :
LOGIN :

S'inscrire | Disclaimer

   EN    FR    IT 

 










Légende :    VFR   VFR Marginal   IFR   IFR Intensif   IFR Très Intensif
Visi : 
Plafond : 
>= 8 km
>= 3000ft
5 à 8 km
1000 à 3000 ft
1500m à 5 km
500 à 1000 ft
800 à 1500m
200 à 500 ft
< 800m
< 200 ft
Symboles :   Orages  Brouillard  Fortes neiges  Fortes précipitations  Vent > 20 kt
SIGMETs :   Divers  Orages  Givrage  Turbulence  Onde Orograph.  Cendres Volcan.






- Altitude de l'aérodrome : 2697 ft
- Code IATA : BLJ


DABT - Batna

DERNIER METAR :
  • 230500Z 00000KT CAVOK 09/02 Q1018

METARs EXPIRÉS :
  • 230400Z 12003KT CAVOK 10/03 Q1018
  • 230300Z 13004KT CAVOK 10/02 Q1018

TAF TAF DABT
Valide du 23 à 06h jusqu'au 24 à 06h UTC


230500Z 2306/2406 14008KT 9999 FEW030 SCT200
PROB40
TEMPO 2312/2318 03012KT FEW033CB
PROB30
TEMPO 2318/2406 5000 -TSRA FEW020CB BKN030



MET'MAP, la Météo Aéronautique d'un coup d'oeil ! - Copyright ORBIFLY Décembre 2007 - Disclaimer

ORBIFLY MET'MAP TEAM :

Programmation & Développement : Alexandra Zaïnal
Sur une idée originale de : Baudouin d'Aumeries
Assistance à la programmation : Marc-Olivier Méhu
Soutien technique & logistique : Manuel Goepfert

Contact : metmap@orbifly.com




SOURCES & CREDITS :

   NOAA